El Hierro > ESTACION METEOROLÓGICA Sabinosa

DATOS ACTUALES Online

Ultima actulizacion 14 minutos

17.4 ºC

Temperatura

76

Humedad (%)

983.4

Presión (mb)

0

Precipitación (mm)

2.9 NW

Viento (Km/h)

DATOS DIARIOS

Temperatura últimas 24 horas (ºC)

Humedad últimas 24 horas (%)

Presión atmosférica últimas 24 horas (mb)

Precipitaciones últimas 23 horas (mm)

Viento últimas 24 horas (Km/h)

Hora Temperatura (°C) ºC Precipitación (mm) mm Presión (mb) mb Humedad (%) % Viento (Km/h) km/h
29 - 00:00 17.4 0 984 74 2.5 N
29 - 01:00 17.2 0 984 73 3.6 NW
29 - 02:00 17.6 0 983 72 3.2 W
29 - 03:00 17.8 0 983 79 0.4 N
29 - 04:00 17.4 0 982 77 2.5 NW
29 - 05:00 17.3 0 982 74 10.4 N
29 - 06:00 17.5 0 983 73 0.7 NO
29 - 07:00 17.6 0 983 74 1.8 N
29 - 08:00 18.2 0 983 74 1.8 SW
29 - 09:00 18.9 0 984 78 4.3 SO
29 - 10:00 18.8 0 984 79 2.5 SW
29 - 11:00 18.6 0 984 77 2.2 NW
29 - 12:00 19.3 0 984 73 3.2 W
29 - 13:00 20.5 0 983 70 7.9 S
29 - 14:00 20.6 0 983 68 5.8 S
29 - 15:00 20.5 0 983 63 2.5 SW
29 - 16:00 20.6 0 983 70 4.3 S
29 - 17:00 20.6 0 983 70 5.4 SO
29 - 18:00 19.8 0 983 74 4.3 SO
29 - 19:00 19.4 0 983 71 4 SW
29 - 20:00 19.4 0 983 68 1.4 S
29 - 21:00 17.3 0 983 73 1.4 N
29 - 22:00 17.7 0 983 79 1.4 W
29 - 23:00 17.4 0 983 76 2.9 NW
30 - 00:00
Apalmet utiliza cookies propias y de terceros para mejorar la usabilidad y la experiencia web. Política de cookies.